N765GA KOCF-3J6

Flight info

Callsign N765GA
Flight time 0h 57m
Altitude 7500
Route 2930N08207W 3017N08207W
Aircraft C172/L-SBDFGRY/E

Departure

Time 2026-05-03 21:01
Airport Ocala International Airport - Jim Taylor Field (KOCF)

Arrival

Time 2026-05-03 21:58
Airport Davis Field (3J6)
Time Latitude Longitude Altitude Speed Heading
2026-05-03 20:35 29.17295 -82.22063 84 ft 0 kts 89°
2026-05-03 20:50 29.17295 -82.22061 84 ft 2 kts 89°
2026-05-03 20:51 29.17265 -82.22071 84 ft 13 kts 264°
2026-05-03 20:51 29.17264 -82.22186 82 ft 15 kts 270°
2026-05-03 20:51 29.17356 -82.22212 84 ft 16 kts
2026-05-03 20:51 29.17475 -82.22212 84 ft 19 kts 359°
2026-05-03 20:52 29.17618 -82.22212 81 ft 22 kts
2026-05-03 20:52 29.17748 -82.22213 81 ft 15 kts 358°
2026-05-03 20:52 29.17847 -82.22211 83 ft 14 kts
2026-05-03 20:52 29.17882 -82.22226 83 ft 2 kts 179°
2026-05-03 20:53 29.17872 -82.22215 86 ft 0 kts 136°
2026-05-03 20:54 29.17871 -82.22215 86 ft 1 kts 136°
2026-05-03 20:54 29.17862 -82.22221 84 ft 0 kts 319°
2026-05-03 20:59 29.17867 -82.22227 84 ft 5 kts 308°
2026-05-03 20:59 29.17870 -82.22272 82 ft 13 kts 245°
2026-05-03 21:00 29.17709 -82.22305 80 ft 44 kts 179°
2026-05-03 21:00 29.17441 -82.22308 82 ft 72 kts 181°
2026-05-03 21:00 29.16717 -82.22308 303 ft 81 kts 181°
2026-05-03 21:00 29.16143 -82.22312 505 ft 84 kts 179°
2026-05-03 21:01 29.15533 -82.22298 686 ft 88 kts 177°
2026-05-03 21:01 29.14933 -82.22310 944 ft 86 kts 178°
2026-05-03 21:01 29.14382 -82.22180 1263 ft 79 kts 122°
2026-05-03 21:01 29.14049 -82.21683 1504 ft 78 kts 123°
2026-05-03 21:02 29.13725 -82.21202 1711 ft 75 kts 121°
2026-05-03 21:02 29.13703 -82.20652 1880 ft 72 kts 73°
2026-05-03 21:02 29.13959 -82.20165 2203 ft 73 kts 43°
2026-05-03 21:02 29.14439 -82.19911 2559 ft 82 kts 15°
2026-05-03 21:03 29.15004 -82.19812 2746 ft 82 kts 14°
2026-05-03 21:03 29.15557 -82.19709 2941 ft 82 kts 15°
2026-05-03 21:03 29.16123 -82.19600 3124 ft 82 kts 14°
2026-05-03 21:03 29.16690 -82.19489 3325 ft 84 kts 16°
2026-05-03 21:04 29.17268 -82.19373 3571 ft 84 kts 15°
2026-05-03 21:04 29.17841 -82.19260 3875 ft 85 kts 15°
2026-05-03 21:04 29.18424 -82.19142 4069 ft 85 kts 15°
2026-05-03 21:04 29.19005 -82.19027 4280 ft 85 kts 14°
2026-05-03 21:05 29.19593 -82.18907 4451 ft 86 kts 14°
2026-05-03 21:05 29.20185 -82.18786 4639 ft 86 kts 15°
2026-05-03 21:05 29.20777 -82.18672 4843 ft 87 kts 14°
2026-05-03 21:05 29.21372 -82.18558 5029 ft 87 kts 14°
2026-05-03 21:06 29.21974 -82.18431 5210 ft 88 kts 13°
2026-05-03 21:06 29.22581 -82.18305 5386 ft 89 kts 11°
2026-05-03 21:06 29.23196 -82.18180 5571 ft 90 kts
2026-05-03 21:06 29.23814 -82.18057 5724 ft 90 kts
2026-05-03 21:07 29.24434 -82.17934 5925 ft 91 kts
2026-05-03 21:07 29.25062 -82.17807 6158 ft 92 kts
2026-05-03 21:07 29.25689 -82.17681 6322 ft 92 kts
2026-05-03 21:07 29.26325 -82.17551 6549 ft 93 kts
2026-05-03 21:08 29.26967 -82.17422 6698 ft 94 kts
2026-05-03 21:08 29.27606 -82.17294 6821 ft 95 kts
2026-05-03 21:08 29.28258 -82.17162 6974 ft 95 kts
2026-05-03 21:08 29.28912 -82.17030 7124 ft 96 kts
2026-05-03 21:09 29.29571 -82.16898 7300 ft 96 kts
2026-05-03 21:09 29.30229 -82.16761 7477 ft 97 kts
2026-05-03 21:09 29.30955 -82.16618 7499 ft 112 kts
2026-05-03 21:09 29.31752 -82.16453 7500 ft 120 kts
2026-05-03 21:10 29.32584 -82.16279 7500 ft 121 kts
2026-05-03 21:10 29.33413 -82.16108 7500 ft 122 kts
2026-05-03 21:10 29.34242 -82.15938 7498 ft 121 kts
2026-05-03 21:10 29.35077 -82.15769 7504 ft 121 kts
2026-05-03 21:11 29.35904 -82.15602 7493 ft 119 kts
2026-05-03 21:11 29.36700 -82.15444 7494 ft 117 kts
2026-05-03 21:11 29.37507 -82.15286 7493 ft 118 kts
2026-05-03 21:11 29.38322 -82.15118 7490 ft 119 kts
2026-05-03 21:12 29.39144 -82.14951 7504 ft 121 kts
2026-05-03 21:12 29.39972 -82.14783 7500 ft 120 kts
2026-05-03 21:12 29.40803 -82.14617 7513 ft 121 kts
2026-05-03 21:12 29.41634 -82.14450 7504 ft 120 kts
2026-05-03 21:13 29.42447 -82.14283 7501 ft 118 kts
2026-05-03 21:13 29.43240 -82.14124 7492 ft 116 kts
2026-05-03 21:13 29.44034 -82.13964 7496 ft 115 kts
2026-05-03 21:13 29.44822 -82.13805 7507 ft 114 kts
2026-05-03 21:14 29.45605 -82.13647 7502 ft 114 kts
2026-05-03 21:14 29.46383 -82.13491 7506 ft 114 kts
2026-05-03 21:14 29.47162 -82.13334 7503 ft 113 kts
2026-05-03 21:14 29.47935 -82.13177 7501 ft 113 kts
2026-05-03 21:15 29.48711 -82.13022 7508 ft 115 kts
2026-05-03 21:15 29.49511 -82.12860 7508 ft 116 kts
2026-05-03 21:15 29.50302 -82.12699 7501 ft 115 kts
2026-05-03 21:15 29.51067 -82.12666 7505 ft 111 kts 353°
2026-05-03 21:16 29.51841 -82.12666 7501 ft 111 kts 354°
2026-05-03 21:16 29.52618 -82.12664 7493 ft 112 kts 354°
2026-05-03 21:16 29.53395 -82.12661 7501 ft 112 kts 354°
2026-05-03 21:16 29.54165 -82.12658 7505 ft 112 kts 354°
2026-05-03 21:17 29.54949 -82.12655 7488 ft 113 kts 354°
2026-05-03 21:17 29.55477 -82.12653 7502 ft 112 kts 354°
2026-05-03 21:17 29.56517 -82.12650 7504 ft 115 kts 354°
2026-05-03 21:17 29.57309 -82.12645 7504 ft 113 kts 354°
2026-05-03 21:18 29.58095 -82.12642 7510 ft 113 kts 354°
2026-05-03 21:18 29.58902 -82.12641 7510 ft 117 kts 354°
2026-05-03 21:18 29.59707 -82.12635 7510 ft 115 kts 354°
2026-05-03 21:18 29.60499 -82.12631 7509 ft 113 kts 354°
2026-05-03 21:19 29.61277 -82.12629 7507 ft 113 kts 354°
2026-05-03 21:19 29.62086 -82.12627 7497 ft 118 kts 354°
2026-05-03 21:19 29.62895 -82.12622 7508 ft 115 kts 354°
2026-05-03 21:19 29.63701 -82.12618 7507 ft 116 kts 354°
2026-05-03 21:20 29.64502 -82.12616 7505 ft 114 kts 354°
2026-05-03 21:20 29.65292 -82.12614 7499 ft 113 kts 354°
2026-05-03 21:20 29.66092 -82.12610 7504 ft 118 kts 354°
2026-05-03 21:20 29.66905 -82.12608 7517 ft 116 kts 354°
2026-05-03 21:21 29.67714 -82.12603 7505 ft 114 kts 354°
2026-05-03 21:21 29.68503 -82.12600 7508 ft 113 kts 354°
2026-05-03 21:21 29.69301 -82.12597 7508 ft 115 kts 354°
2026-05-03 21:21 29.70109 -82.12595 7503 ft 116 kts 354°
2026-05-03 21:22 29.70906 -82.12592 7506 ft 115 kts 354°
2026-05-03 21:22 29.71708 -82.12588 7506 ft 115 kts 354°
2026-05-03 21:22 29.72502 -82.12585 7497 ft 114 kts 354°
2026-05-03 21:22 29.73295 -82.12583 7505 ft 114 kts 354°
2026-05-03 21:23 29.74085 -82.12580 7503 ft 113 kts 354°
2026-05-03 21:23 29.74872 -82.12577 7504 ft 113 kts 354°
2026-05-03 21:23 29.75653 -82.12574 7503 ft 112 kts 354°
2026-05-03 21:23 29.76437 -82.12573 7514 ft 114 kts 354°
2026-05-03 21:24 29.77230 -82.12568 7503 ft 113 kts 354°
2026-05-03 21:24 29.78018 -82.12566 7507 ft 114 kts 354°
2026-05-03 21:24 29.78807 -82.12562 7511 ft 113 kts 354°
2026-05-03 21:24 29.79592 -82.12559 7519 ft 114 kts 354°
2026-05-03 21:25 29.80409 -82.12554 7524 ft 119 kts 354°
2026-05-03 21:25 29.81251 -82.12549 7522 ft 123 kts 354°
2026-05-03 21:25 29.82109 -82.12545 7520 ft 123 kts 355°
2026-05-03 21:25 29.82938 -82.12540 7511 ft 118 kts 354°
2026-05-03 21:26 29.83737 -82.12539 7516 ft 116 kts 354°
2026-05-03 21:26 29.84545 -82.12536 7509 ft 113 kts 354°
2026-05-03 21:26 29.85312 -82.12534 7510 ft 111 kts 354°
2026-05-03 21:26 29.86103 -82.12532 7509 ft 115 kts 354°
2026-05-03 21:27 29.86905 -82.12530 7522 ft 117 kts 354°
2026-05-03 21:27 29.87697 -82.12526 7533 ft 119 kts 355°
2026-05-03 21:27 29.88515 -82.12521 7528 ft 116 kts 354°
2026-05-03 21:27 29.89329 -82.12519 7530 ft 118 kts 354°
2026-05-03 21:28 29.90140 -82.12516 7530 ft 115 kts 354°
2026-05-03 21:28 29.90930 -82.12513 7526 ft 113 kts 354°
2026-05-03 21:28 29.91714 -82.12510 7529 ft 112 kts 354°
2026-05-03 21:28 29.92469 -82.12508 7527 ft 113 kts 355°
2026-05-03 21:29 29.93273 -82.12507 7528 ft 114 kts 354°
2026-05-03 21:29 29.94059 -82.12501 7538 ft 113 kts 354°
2026-05-03 21:29 29.94835 -82.12499 7544 ft 115 kts 354°
2026-05-03 21:29 29.95636 -82.12495 7560 ft 115 kts 354°
2026-05-03 21:30 29.96435 -82.12491 7556 ft 114 kts 354°
2026-05-03 21:30 29.97225 -82.12489 7567 ft 115 kts 355°
2026-05-03 21:30 29.98022 -82.12488 7566 ft 114 kts 354°
2026-05-03 21:30 29.98289 -82.12488 7567 ft 114 kts 354°
2026-05-03 21:31 29.98559 -82.12485 7561 ft 113 kts 354°
2026-05-03 21:31 29.99343 -82.12481 7565 ft 112 kts 354°
2026-05-03 21:32 29.99952 -82.12479 7557 ft 112 kts 354°
2026-05-03 21:32 30.00734 -82.12476 7570 ft 113 kts 354°
2026-05-03 21:32 30.01525 -82.12475 7566 ft 115 kts 355°
2026-05-03 21:32 30.02324 -82.12470 7567 ft 114 kts 355°
2026-05-03 21:33 30.03108 -82.12465 7569 ft 113 kts 354°
2026-05-03 21:33 30.03896 -82.12464 7570 ft 113 kts 355°
2026-05-03 21:33 30.04681 -82.12460 7565 ft 112 kts 354°
2026-05-03 21:33 30.05459 -82.12458 7564 ft 112 kts 354°
2026-05-03 21:34 30.06235 -82.12455 7562 ft 111 kts 354°
2026-05-03 21:34 30.07009 -82.12453 7561 ft 112 kts 354°
2026-05-03 21:34 30.07787 -82.12449 7563 ft 112 kts 355°
2026-05-03 21:34 30.08563 -82.12446 7562 ft 111 kts 354°
2026-05-03 21:35 30.09331 -82.12443 7556 ft 110 kts 354°
2026-05-03 21:35 30.10104 -82.12440 7559 ft 111 kts 354°
2026-05-03 21:35 30.10874 -82.12437 7562 ft 110 kts 355°
2026-05-03 21:35 30.11642 -82.12434 7562 ft 110 kts 354°
2026-05-03 21:36 30.12412 -82.12430 7566 ft 113 kts 355°
2026-05-03 21:36 30.13194 -82.12427 7562 ft 112 kts 354°
2026-05-03 21:36 30.13969 -82.12425 7562 ft 111 kts 354°
2026-05-03 21:36 30.14736 -82.12423 7559 ft 110 kts 354°
2026-05-03 21:37 30.15521 -82.12418 7559 ft 114 kts 355°
2026-05-03 21:37 30.16307 -82.12415 7565 ft 112 kts 354°
2026-05-03 21:37 30.17082 -82.12413 7562 ft 111 kts 355°
2026-05-03 21:37 30.17853 -82.12409 7561 ft 111 kts 354°
2026-05-03 21:38 30.18635 -82.12407 7574 ft 115 kts 355°
2026-05-03 21:38 30.19431 -82.12403 7567 ft 113 kts 355°
2026-05-03 21:38 30.20214 -82.12400 7566 ft 112 kts 355°
2026-05-03 21:38 30.20988 -82.12397 7567 ft 111 kts 355°
2026-05-03 21:39 30.21760 -82.12394 7563 ft 111 kts 354°
2026-05-03 21:39 30.22526 -82.12391 7561 ft 110 kts 354°
2026-05-03 21:39 30.23293 -82.12386 7556 ft 110 kts 355°
2026-05-03 21:39 30.24048 -82.12386 7564 ft 110 kts 354°
2026-05-03 21:40 30.24823 -82.12384 7574 ft 112 kts 355°
2026-05-03 21:40 30.25599 -82.12380 7573 ft 112 kts 355°
2026-05-03 21:40 30.26385 -82.12375 7581 ft 114 kts 355°
2026-05-03 21:40 30.27184 -82.12374 7581 ft 114 kts 356°
2026-05-03 21:41 30.27984 -82.12368 7585 ft 115 kts 355°
2026-05-03 21:41 30.28795 -82.12245 7587 ft 119 kts
2026-05-03 21:41 30.29605 -82.12091 7589 ft 117 kts
2026-05-03 21:41 30.30405 -82.11943 7583 ft 115 kts
2026-05-03 21:42 30.31194 -82.11799 7571 ft 114 kts
2026-05-03 21:42 30.31995 -82.11647 7452 ft 118 kts
2026-05-03 21:42 30.32795 -82.11496 7331 ft 116 kts
2026-05-03 21:42 30.33593 -82.11348 7213 ft 116 kts
2026-05-03 21:43 30.34394 -82.11202 7094 ft 117 kts
2026-05-03 21:43 30.35190 -82.11049 6972 ft 114 kts
2026-05-03 21:43 30.35969 -82.10909 6858 ft 116 kts
2026-05-03 21:43 30.36760 -82.10761 6731 ft 113 kts
2026-05-03 21:44 30.37531 -82.10621 6612 ft 112 kts
2026-05-03 21:44 30.38291 -82.10480 6483 ft 109 kts
2026-05-03 21:44 30.39041 -82.10341 6354 ft 109 kts
2026-05-03 21:44 30.39793 -82.10203 6215 ft 111 kts
2026-05-03 21:45 30.40550 -82.10062 6096 ft 109 kts
2026-05-03 21:45 30.41318 -82.09921 5980 ft 114 kts
2026-05-03 21:45 30.41629 -82.09863 5920 ft 115 kts
2026-05-03 21:45 30.42406 -82.09719 5794 ft 111 kts
2026-05-03 21:46 30.43165 -82.09579 5668 ft 110 kts
2026-05-03 21:46 30.43920 -82.09440 5539 ft 110 kts
2026-05-03 21:46 30.44676 -82.09300 5418 ft 111 kts
2026-05-03 21:46 30.45437 -82.09160 5292 ft 110 kts
2026-05-03 21:47 30.46194 -82.09020 5164 ft 110 kts 10°
2026-05-03 21:47 30.46949 -82.08881 5042 ft 109 kts 10°
2026-05-03 21:47 30.47706 -82.08740 4925 ft 112 kts 11°
2026-05-03 21:47 30.48483 -82.08596 4801 ft 113 kts 11°
2026-05-03 21:48 30.49264 -82.08451 4675 ft 113 kts 11°
2026-05-03 21:48 30.50038 -82.08307 4554 ft 113 kts 11°
2026-05-03 21:48 30.50824 -82.08165 4424 ft 115 kts 11°
2026-05-03 21:48 30.51619 -82.08015 4308 ft 117 kts 12°
2026-05-03 21:49 30.52412 -82.07866 4187 ft 117 kts 12°
2026-05-03 21:49 30.53207 -82.07720 4054 ft 114 kts 12°
2026-05-03 21:49 30.53952 -82.07583 3931 ft 112 kts 12°
2026-05-03 21:49 30.54725 -82.07439 3816 ft 116 kts 12°
2026-05-03 21:50 30.55524 -82.07290 3690 ft 113 kts 12°
2026-05-03 21:50 30.56288 -82.07149 3566 ft 114 kts 13°
2026-05-03 21:50 30.57063 -82.07007 3443 ft 113 kts 12°
2026-05-03 21:50 30.57834 -82.06866 3330 ft 113 kts 13°
2026-05-03 21:51 30.58640 -82.06713 3194 ft 117 kts 13°
2026-05-03 21:51 30.59434 -82.06565 3070 ft 114 kts 13°
2026-05-03 21:51 30.60209 -82.06421 2945 ft 112 kts 12°
2026-05-03 21:51 30.60974 -82.06280 2815 ft 112 kts 13°
2026-05-03 21:52 30.61745 -82.06138 2707 ft 112 kts 11°
2026-05-03 21:52 30.62522 -82.05993 2563 ft 112 kts 12°
2026-05-03 21:52 30.63284 -82.05853 2430 ft 110 kts 13°
2026-05-03 21:52 30.64036 -82.05714 2304 ft 109 kts 14°
2026-05-03 21:53 30.64805 -82.05569 2186 ft 113 kts 14°
2026-05-03 21:53 30.65470 -82.05447 2107 ft 120 kts 13°
2026-05-03 21:53 30.66293 -82.05290 1990 ft 121 kts 12°
2026-05-03 21:53 30.67146 -82.05127 1870 ft 126 kts 12°
2026-05-03 21:54 30.67999 -82.04968 1745 ft 120 kts 12°
2026-05-03 21:54 30.68823 -82.04819 1597 ft 119 kts 13°
2026-05-03 21:54 30.69634 -82.04670 1465 ft 116 kts 13°
2026-05-03 21:54 30.70437 -82.04520 1341 ft 119 kts 13°
2026-05-03 21:55 30.71245 -82.04371 1214 ft 115 kts 13°
2026-05-03 21:55 30.71997 -82.04234 1184 ft 105 kts 12°
2026-05-03 21:55 30.72711 -82.04105 1193 ft 104 kts 13°
2026-05-03 21:55 30.73431 -82.03977 1184 ft 103 kts 12°
2026-05-03 21:56 30.74126 -82.03844 1185 ft 102 kts 21°
2026-05-03 21:56 30.74743 -82.03446 1169 ft 100 kts 39°
2026-05-03 21:56 30.75372 -82.03035 991 ft 107 kts 19°
2026-05-03 21:56 30.76105 -82.02971 840 ft 104 kts
2026-05-03 21:57 30.76813 -82.02914 647 ft 97 kts
2026-05-03 21:57 30.77424 -82.02896 513 ft 75 kts
2026-05-03 21:57 30.77930 -82.02901 380 ft 73 kts
2026-05-03 21:57 30.78432 -82.02859 257 ft 72 kts
2026-05-03 21:58 30.78923 -82.02836 162 ft 69 kts
2026-05-03 21:58 30.79404 -82.02826 75 ft 64 kts 359°
2026-05-03 21:58 30.79750 -82.02814 67 ft 35 kts
2026-05-03 21:58 30.79857 -82.02818 67 ft 9 kts 314°
2026-05-03 21:59 30.79870 -82.02883 67 ft 8 kts 265°
2026-05-03 21:59 30.79874 -82.02898 63 ft 0 kts 332°